Weather History for Newark Heath, OH

Change the Weather History Date:

Tuesday, April 23, 2013

  Actual Average Record
Temperature  
Mean Temperature 54 °F -  
Max Temperature 71 °F 66 °F 86 °F (1960)
Min Temperature 39 °F 43 °F 22 °F (1936)
Degree Days  
Heating Degree Days 10    
Growing Degree Days 4 (Base 50)    
Moisture  
Dew Point 38 °F    
Average Humidity 49    
Maximum Humidity 73    
Minimum Humidity 36    
Precipitation  
Precipitation 0.00 in - - ()
Sea Level Pressure  
Sea Level Pressure 30.07 in    
Wind  
Wind Speed 4 mph (SSW)    
Max Wind Speed 13 mph    
Max Gust Speed 18 mph    
Visibility 10 miles    
Events      
Averages and records for this station are not official NWS values.
T = Trace of Precipitation, MM = Missing Value Source: NWS Daily Summary

Daily Weather History Graph

Daily Weather History Graph

Search for Another Location

Airport:

Trip Planner

Search our weather history database for the weather conditions in past years. The results will help you decide how hot, cold, wet, or windy it might be!

Date:

Astronomy

Apr. 23, 2013 Rise Set
Actual Time 6:40 AM EDT 8:16 PM EDT
Civil Twilight 6:11 AM EDT 8:45 PM EDT
Nautical Twilight 5:36 AM EDT 9:20 PM EDT
Astronomical Twilight 5:00 AM EDT 9:57 PM EDT
Moon 6:10 PM EDT (4/23) 5:07 AM EDT (4/23)
Length of Visible Light 14h 34m
Length of Day
13h 36m
Waxing Gibbous, 94% of the Moon is Illuminated
Apr 23
Waxing Gibbous
Apr 25
Full
May 2
Last Quarter
May 9
New
May 18
First Quarter

Hourly Weather History & Observations

Time (EDT) Temp. Dew Point Humidity Pressure Visibility Wind Dir Wind Speed Gust Speed Precip Events Conditions
12:54 AM 54.0 °F 28.0 °F 37% 30.19 in 10.0 mi East 3.5 mph - N/A   Clear
1:54 AM 48.9 °F 30.0 °F 48% 30.19 in 10.0 mi Variable 3.5 mph - N/A   Clear
2:54 AM 46.9 °F 28.0 °F 48% 30.17 in 10.0 mi Calm Calm - N/A   Clear
3:54 AM 42.1 °F 30.0 °F 62% 30.17 in 10.0 mi Calm Calm - N/A   Clear
4:54 AM 43.0 °F 28.9 °F 58% 30.16 in 10.0 mi Calm Calm - N/A   Clear
5:54 AM 39.9 °F 28.9 °F 65% 30.16 in 10.0 mi Calm Calm - N/A   Clear
6:54 AM 39.0 °F 30.9 °F 73% 30.15 in 10.0 mi Calm Calm - N/A   Clear
7:54 AM 45.0 °F 36.0 °F 71% 30.16 in 10.0 mi Calm Calm - N/A   Clear
8:54 AM 52.0 °F 30.9 °F 45% 30.16 in 10.0 mi South 6.9 mph - N/A   Clear
9:54 AM 55.9 °F 33.1 °F 42% 30.14 in 10.0 mi SSE 10.4 mph - N/A   Clear
10:54 AM 60.1 °F 36.0 °F 41% 30.14 in 10.0 mi South 6.9 mph - N/A   Clear
11:54 AM 63.0 °F 39.0 °F 41% 30.12 in 10.0 mi South 5.8 mph - N/A   Clear
12:54 PM 66.9 °F 41.0 °F 39% 30.09 in 10.0 mi Variable 6.9 mph - N/A   Clear
1:54 PM 70.0 °F 43.0 °F 38% 30.05 in 10.0 mi South 9.2 mph - N/A   Clear
2:54 PM 70.0 °F 45.0 °F 41% 30.03 in 10.0 mi WSW 12.7 mph - N/A   Clear
3:54 PM 70.0 °F 42.1 °F 36% 30.01 in 10.0 mi SW 12.7 mph - N/A   Clear
4:54 PM 70.0 °F 43.0 °F 38% 29.99 in 10.0 mi SW 10.4 mph 18.4 mph N/A   Clear
5:54 PM 70.0 °F 43.0 °F 38% 29.98 in 10.0 mi SW 10.4 mph - N/A   Partly Cloudy
6:54 PM 69.1 °F 45.0 °F 42% 29.96 in 10.0 mi SSW 9.2 mph - N/A   Clear
7:54 PM 66.9 °F 45.0 °F 45% 29.94 in 10.0 mi SSW 6.9 mph - N/A   Mostly Cloudy
8:54 PM 66.0 °F 46.0 °F 48% 29.94 in 10.0 mi SSW 4.6 mph - N/A   Overcast
9:54 PM 64.9 °F 45.0 °F 48% 29.93 in 10.0 mi South 4.6 mph - N/A   Overcast
10:54 PM 63.0 °F 48.0 °F 58% 29.91 in 10.0 mi Calm Calm - N/A   Mostly Cloudy
11:54 PM 57.9 °F 48.0 °F 70% 29.90 in 10.0 mi Calm Calm - N/A   Partly Cloudy